Hourly Data Report for June 16, 2021

TORONTO CITY
ONTARIO
Current Station Operator: ECCC - MSC

43°40'00.000" N
79°24'00.000" W
112.50 m
6158355
71508
XTO

Download Data

Hourly Data (June 2021)
Hourly Data Report for June 16, 2021
TIME
LST
Temp Definition
°C
Dew Point Definition
°C
Rel Hum Definition
%
Precip. Amount Definition
mm

Wind Dir Definition
10's deg

Wind Spd Definition
km/h
Visibility Definition
km
Stn Press Definition
kPa
Hmdx Definition


Wind Chill Definition


Weather Definition


00:00 16.1 2.9 41 0.0       100.12     LegendNANA
01:00 15.7 2.4 41 0.0       100.14     LegendNANA
02:00 14.9 2.5 43 0.0       100.20     LegendNANA
03:00 14.0 2.9 47 0.0       100.25     LegendNANA
04:00 13.1 3.8 53 0.0       100.28     LegendNANA
05:00 13.0 4.0 54 0.0       100.32     LegendNANA
06:00 13.3 4.0 53 0.0       100.36     LegendNANA
07:00 14.3 3.2 47 0.0       100.37     LegendNANA
08:00 15.7 3.1 43 0.0       100.36     LegendNANA
09:00 17.0 2.7 38 0.0       100.38     LegendNANA
10:00 18.7 2.3 33 0.0       100.39     LegendNANA
11:00 20.0 4.3 35 0.0       100.36     LegendNANA
12:00 19.7 0.1 27 0.0       100.33     LegendNANA
13:00 21.1 1.5 27 0.0       100.30     LegendNANA
14:00 21.7 -0.2 23 0.0       100.24     LegendNANA
15:00 21.3 -3.7 18 0.0       100.21     LegendNANA
16:00 21.6 -2.4 20 0.0       100.18     LegendNANA
17:00 20.9 -3.5 19 0.0       100.18     LegendNANA
18:00 19.7 -0.8 25 0.0       100.16     LegendNANA
19:00 18.9 -0.1 28 0.0       100.16     LegendNANA
20:00 17.7 -0.2 30 0.0       100.20     LegendNANA
21:00 16.6 0.5 33 0.0       100.23     LegendNANA
22:00 15.5 1.2 38 0.0       100.25     LegendNANA
23:00 14.1 1.7 43 0.0       100.27     LegendNANA

Notes on Data Quality.

Legend

  • E = Estimated
  • M = Missing
  • NA = Not Available*
  • [empty] = Indicates an unobserved value
Date modified: